• Em Portugal
  • Lista de países
  • Para 7 dias
  • Temperatura da água
  • Mapas de satélite
  • Mapa do tempo
  • Widgets de tempo
  • user-avatar
    Iniciar Sessão

    Previsão horária em Sittwe

    Hoje, 20 Outubro, Sexta-feira

    Tempo Temperatura Precipitação Vento Pressão Humidade
    00:00 +26°C° 1,3 mm 8 m/s 757 mmHg 98%
    01:00 +26°C° 1,2 mm 8 m/s 757 mmHg 98%
    02:00 +26°C° 1,2 mm 8 m/s 757 mmHg 98%
    03:00 +24°C° 1,2 mm 7 m/s 756 mmHg 98%
    04:00 +24°C° 1,3 mm 8 m/s 756 mmHg 98%
    05:00 +24°C° 1,3 mm 8 m/s 756 mmHg 98%
    06:00 +24°C° 1,3 mm 8 m/s 757 mmHg 98%
    07:00 +26°C° 0,8 mm 8 m/s 757 mmHg 97%
    08:00 +26°C° 0,8 mm 8 m/s 758 mmHg 96%
    09:00 +27°C° 0,8 mm 8 m/s 758 mmHg 96%
    10:00 +28°C° 0,6 mm 8 m/s 758 mmHg 92%
    11:00 +29°C° 0,6 mm 8 m/s 757 mmHg 88%
    12:00 +31°C° 0,6 mm 8 m/s 757 mmHg 84%
    13:00 +31°C° 0,5 mm 8 m/s 756 mmHg 87%
    14:00 +29°C° 0,5 mm 8 m/s 756 mmHg 90%
    15:00 +29°C° 0,5 mm 8 m/s 755 mmHg 93%
    16:00 +28°C° 1 mm 8 m/s 755 mmHg 94%
    17:00 +27°C° 1 mm 7 m/s 756 mmHg 95%
    18:00 +27°C° 1 mm 7 m/s 756 mmHg 96%
    19:00 +27°C° 1,2 mm 7 m/s 757 mmHg 97%
    20:00 +26°C° 1,2 mm 6 m/s 757 mmHg 97%
    21:00 +26°C° 1,2 mm 6 m/s 758 mmHg 98%
    22:00 +26°C° 1,1 mm 6 m/s 758 mmHg 98%
    23:00 +24°C° 1,1 mm 6 m/s 757 mmHg 98%

    Amanhã, 21 Outubro, Sábado

    Tempo Temperatura Precipitação Vento Pressão Humidade
    00:00 +24°C° 1,1 mm 6 m/s 757 mmHg 98%
    01:00 +24°C° 0,4 mm 6 m/s 757 mmHg 98%
    02:00 +24°C° 0,4 mm 6 m/s 756 mmHg 98%
    03:00 +24°C° 0,4 mm 6 m/s 756 mmHg 98%
    04:00 +23°C° 0,5 mm 6 m/s 756 mmHg 98%
    05:00 +23°C° 0,5 mm 6 m/s 756 mmHg 98%
    06:00 +23°C° 0,5 mm 6 m/s 756 mmHg 98%
    07:00 +26°C° 0,5 mm 6 m/s 756 mmHg 95%
    08:00 +27°C° 0,5 mm 6 m/s 757 mmHg 92%
    09:00 +29°C° 0,5 mm 7 m/s 757 mmHg 89%
    10:00 +30°C° 0,5 mm 7 m/s 757 mmHg 87%
    11:00 +30°C° 0,5 mm 7 m/s 757 mmHg 86%
    12:00 +32°C° 0,5 mm 7 m/s 756 mmHg 85%
    13:00 +32°C° 0,3 mm 7 m/s 756 mmHg 86%
    14:00 +30°C° 0,3 mm 7 m/s 755 mmHg 88%
    15:00 +30°C° 0,3 mm 7 m/s 755 mmHg 89%
    16:00 +29°C° 0,2 mm 6 m/s 755 mmHg 91%
    17:00 +28°C° 0,2 mm 6 m/s 755 mmHg 94%
    18:00 +27°C° 0,2 mm 6 m/s 755 mmHg 96%
    19:00 +27°C° 0,1 mm 6 m/s 756 mmHg 96%
    20:00 +27°C° 0,1 mm 6 m/s 756 mmHg 96%
    21:00 +27°C° 0,1 mm 6 m/s 757 mmHg 97%
    22:00 +27°C° 0,3 mm 6 m/s 756 mmHg 97%
    23:00 +27°C° 0,3 mm 6 m/s 756 mmHg 97%

    Depois de amanhã, 22 Outubro, Domingo

    Tempo Temperatura Precipitação Vento Pressão Humidade
    00:00 +26°C° 0,3 mm 6 m/s 756 mmHg 97%
    01:00 +26°C° 0,5 mm 5 m/s 756 mmHg 97%
    02:00 +26°C° 0,5 mm 5 m/s 755 mmHg 97%
    03:00 +26°C° 0,5 mm 5 m/s 755 mmHg 97%
    04:00 +26°C° 0,7 mm 4 m/s 755 mmHg 97%
    05:00 +25°C° 0,7 mm 4 m/s 755 mmHg 97%
    06:00 +25°C° 0,7 mm 3 m/s 756 mmHg 97%
    07:00 +27°C° 0,4 mm 3 m/s 756 mmHg 92%
    08:00 +28°C° 0,4 mm 3 m/s 757 mmHg 87%
    09:00 +30°C° 0,4 mm 4 m/s 757 mmHg 82%
    10:00 +30°C° 0,4 mm 4 m/s 757 mmHg 83%
    11:00 +32°C° 0,4 mm 4 m/s 756 mmHg 84%
    12:00 +32°C° 0,4 mm 4 m/s 756 mmHg 85%
    13:00 +32°C° 0,4 mm 4 m/s 755 mmHg 86%
    14:00 +32°C° 0,4 mm 4 m/s 755 mmHg 87%
    15:00 +32°C° 0,4 mm 4 m/s 754 mmHg 87%
    16:00 +30°C° 0,5 mm 4 m/s 754 mmHg 89%
    17:00 +29°C° 0,5 mm 4 m/s 754 mmHg 92%
    18:00 +28°C° 0,5 mm 4 m/s 755 mmHg 94%
    19:00 +27°C° 1,2 mm 4 m/s 755 mmHg 95%
    20:00 +27°C° 1,2 mm 4 m/s 756 mmHg 96%
    21:00 +27°C° 1,2 mm 4 m/s 756 mmHg 97%
    22:00 +27°C° 1,1 mm 4 m/s 756 mmHg 97%
    23:00 +26°C° 1,1 mm 3 m/s 756 mmHg 97%

    23 Outubro, Segunda-feira

    Tempo Temperatura Precipitação Vento Pressão Humidade
    00:00 +26°C° 1,1 mm 3 m/s 756 mmHg 98%
    01:00 +26°C° 2,2 mm 3 m/s 755 mmHg 98%
    02:00 +26°C° 2,2 mm 3 m/s 755 mmHg 98%
    03:00 +26°C° 2,2 mm 3 m/s 755 mmHg 99%
    04:00 +26°C° 1,8 mm 3 m/s 755 mmHg 99%
    05:00 +26°C° 1,8 mm 3 m/s 755 mmHg 99%
    06:00 +26°C° 1,8 mm 3 m/s 756 mmHg 99%
    07:00 +27°C° 0,4 mm 3 m/s 756 mmHg 96%
    08:00 +27°C° 0,4 mm 3 m/s 757 mmHg 93%
    09:00 +28°C° 0,4 mm 3 m/s 757 mmHg 91%
    10:00 +29°C° 0,3 mm 3 m/s 757 mmHg 87%
    11:00 +30°C° 0,3 mm 3 m/s 756 mmHg 84%
    12:00 +33°C° 0,3 mm 3 m/s 756 mmHg 80%
    13:00 +31°C° 0,3 mm 3 m/s 755 mmHg 84%
    14:00 +30°C° 0,3 mm 3 m/s 755 mmHg 89%
    15:00 +30°C° 0,3 mm 3 m/s 754 mmHg 93%
    16:00 +29°C° 0,2 mm 3 m/s 755 mmHg 93%
    17:00 +28°C° 0,2 mm 2 m/s 755 mmHg 94%
    18:00 +27°C° 0,2 mm 2 m/s 756 mmHg 95%
    19:00 +27°C° 0,6 mm 2 m/s 756 mmHg 95%
    20:00 +27°C° 0,6 mm 2 m/s 757 mmHg 95%
    21:00 +26°C° 0,6 mm 2 m/s 757 mmHg 96%
    22:00 +26°C° 0,1 mm 2 m/s 757 mmHg 96%
    23:00 +26°C° 0,1 mm 2 m/s 757 mmHg 97%

    24 Outubro, Terça-feira

    Tempo Temperatura Precipitação Vento Pressão Humidade
    00:00 +26°C° 0,1 mm 2 m/s 757 mmHg 97%
    01:00 +26°C° 0,3 mm 2 m/s 757 mmHg 98%
    02:00 +25°C° 0,3 mm 1 m/s 757 mmHg 98%
    03:00 +25°C° 0,3 mm 1 m/s 756 mmHg 98%
    04:00 +25°C° 0,2 mm 2 m/s 757 mmHg 98%
    05:00 +25°C° 0,2 mm 2 m/s 757 mmHg 98%
    06:00 +25°C° 0,2 mm 2 m/s 758 mmHg 98%
    07:00 +27°C° 0,3 mm 3 m/s 758 mmHg 91%
    08:00 +29°C° 0,3 mm 3 m/s 758 mmHg 85%
    09:00 +31°C° 0,3 mm 3 m/s 759 mmHg 78%
    10:00 +31°C° 0,2 mm 3 m/s 758 mmHg 76%
    11:00 +32°C° 0,2 mm 2 m/s 758 mmHg 73%
    12:00 +34°C° 0,2 mm 2 m/s 757 mmHg 71%
    13:00 +34°C° 0 mm 2 m/s 757 mmHg 70%
    14:00 +34°C° 0 mm 2 m/s 756 mmHg 68%
    15:00 +34°C° 0 mm 2 m/s 756 mmHg 67%
    16:00 +31°C° 0 mm 2 m/s 757 mmHg 76%
    17:00 +30°C° 0 mm 2 m/s 757 mmHg 84%
    18:00 +28°C° 0 mm 1 m/s 757 mmHg 93%
    19:00 +27°C° 0 mm 1 m/s 758 mmHg 94%
    20:00 +27°C° 0 mm 1 m/s 758 mmHg 95%
    21:00 +27°C° 0 mm 1 m/s 759 mmHg 96%
    22:00 +27°C° 0,1 mm 1 m/s 759 mmHg 97%
    23:00 +26°C° 0,1 mm 1 m/s 759 mmHg 97%

    25 Outubro, Quarta-feira

    Tempo Temperatura Precipitação Vento Pressão Humidade
    00:00 +26°C° 0,1 mm 1 m/s 759 mmHg 98%
    01:00 +26°C° 0,5 mm 1 m/s 758 mmHg 98%
    02:00 +26°C° 0,5 mm 1 m/s 758 mmHg 98%
    03:00 +26°C° 0,5 mm 1 m/s 758 mmHg 98%
    04:00 +25°C° 0,4 mm 1 m/s 759 mmHg 98%
    05:00 +25°C° 0,4 mm 2 m/s 759 mmHg 98%
    06:00 +25°C° 0,4 mm 2 m/s 759 mmHg 98%
    07:00 +27°C° 0 mm 2 m/s 760 mmHg 92%
    08:00 +29°C° 0 mm 2 m/s 760 mmHg 85%
    09:00 +31°C° 0 mm 2 m/s 761 mmHg 79%
    10:00 +32°C° 0,3 mm 2 m/s 760 mmHg 71%
    11:00 +34°C° 0,3 mm 1 m/s 760 mmHg 63%
    12:00 +36°C° 0,3 mm 1 m/s 759 mmHg 55%
    13:00 +34°C° 0,1 mm 1 m/s 759 mmHg 64%
    14:00 +33°C° 0,1 mm 1 m/s 758 mmHg 74%
    15:00 +32°C° 0,1 mm 2 m/s 758 mmHg 83%
    16:00 +30°C° 0,1 mm 1 m/s 758 mmHg 86%
    17:00 +29°C° 0,1 mm 1 m/s 759 mmHg 90%
    18:00 +27°C° 0,1 mm 1 m/s 759 mmHg 93%
    19:00 +27°C° 0,1 mm 1 m/s 759 mmHg 94%
    20:00 +26°C° 0,1 mm 1 m/s 760 mmHg 95%
    21:00 +26°C° 0,1 mm 1 m/s 760 mmHg 96%
    22:00 +26°C° 0,5 mm 1 m/s 760 mmHg 96%
    23:00 +26°C° 0,5 mm 1 m/s 760 mmHg 97%
    Mostrar mais